Dewpoint
51 37 33 28 17 21 17 18 34 42 47 52 54 53 55 58 54 49 65 68 69 69 69 70 70 71 71 72 72 72 71 70 69 69 69 68 68 67 68 68 68 67 66 66 65 65 64 64 64
38 32 29 24 17 14 20 25 40 47 51 54 53 54 56 57 62 63 64 68 68 68 69 69 70 71 72 72 72 71 70 70 69 69 68 68 67 68 68 67 67 66 65 64 63 63 64 64 64
43 32 19 19 19 14 22 37 46 49 49 49 48 50 55 59 62 63 66 68 68 69 70 70 70 70 71 71 71 71 71 70 70 69 68 68 68 67 66 66 66 65 63 62 62 63 63 62 62
33 23 18 14 12 16 27 44 47 47 46 49 49 49 54 60 61 64 67 67 67 68 69 69 69 70 70 71 71 70 70 70 70 69 68 68 66 65 66 66 65 63 62 62 61 61 61 62 62
29 21 15 17 17 23 24 44 48 45 46 47 48 47 53 62 65 66 66 66 66 66 67 67 68 69 70 70 70 70 70 69 69 69 68 66 65 66 66 65 64 63 62 61 60 60 60 61 61
22 19 14 23 32 33 42 45 47 46 47 48 50 49 55 63 64 64 65 64 65 64 64 66 68 69 69 69 69 69 69 69 68 68 67 66 66 66 64 64 63 62 61 60 59 60 60 61 61
19 17 14 29 33 33 39 43 46 46 46 46 49 51 58 61 61 61 61 61 61 61 62 63 64 66 67 67 67 67 67 67 67 67 66 66 66 65 65 64 63 61 61 61 61 61 61 61 61
22 18 16 21 31 34 33 41 48 46 46 47 51 54 57 57 58 57 57 57 58 60 60 60 61 62 62 63 65 65 65 65 65 65 64 64 64 64 63 63 62 62 61 62 62 62 62 62 61
21 17 14 18 31 34 36 37 30 45 45 46 46 52 55 56 54 53 53 55 56 58 59 59 60 60 60 61 63 64 64 64 64 64 63 62 61 61 61 62 62 63 62 62 63 63 62 62 60
22 18 16 19 25 35 36 37 42 45 46 43 45 50 54 53 52 50 50 52 54 56 58 59 59 59 59 59 61 61 62 62 61 61 61 60 59 59 61 62 62 63 62 61 61 60 60 58 56
19 17 12 13 26 19 28 32 41 45 44 44 46 49 50 50 47 47 48 49 51 54 56 58 59 58 58 58 60 60 61 60 60 60 60 60 60 59 60 59 58 57 57 55 56 55 55 52 52
15 14 7 11 16 19 32 27 43 38 40 45 48 49 48 47 45 44 45 47 49 52 54 57 58 57 58 58 59 59 60 60 60 60 60 59 59 58 57 57 56 53 52 51 51 51 51 51 51
12 10 12 9 9 17 15 22 39 23 46 44 47 46 45 44 44 43 43 46 49 52 54 56 57 57 57 57 58 58 59 60 60 60 60 59 58 55 54 53 52 52 52 52 51 50 49 48 48
10 10 11 10 8 11 14 17 18 32 46 43 45 45 45 45 46 46 47 48 50 52 54 56 57 58 57 55 56 57 58 59 59 59 57 56 55 54 53 52 51 51 50 49 49 48 46 45 46
11 7 10 12 13 15 16 14 18 42 45 43 43 43 43 43 43 44 45 47 50 53 55 56 59 59 59 57 56 56 56 56 57 56 55 54 54 52 51 49 48 48 47 47 46 45 45 44 43
15 14 8 12 15 17 12 8 16 46 45 44 45 45 46 48 50 51 50 45 51 55 58 60 60 60 59 56 56 55 51 51 52 52 51 50 49 48 46 45 45 45 46 46 45 44 44 43 43
16 12 15 17 17 16 16 16 22 44 45 41 41 45 46 46 46 47 54 53 54 59 59 59 59 60 58 55 54 54 51 47 50 48 45 45 45 45 43 43 43 43 44 44 44 43 43 42 43
12 14 16 16 18 17 16 25 33 34 40 43 44 44 45 45 45 47 51 55 56 57 59 59 60 59 56 55 53 49 46 45 45 43 43 43 43 44 43 41 41 42 41 41 42 41 42 42 43
18 15 16 18 20 24 32 34 36 40 42 43 43 43 44 44 45 47 49 51 52 54 56 58 58 58 54 53 49 47 46 43 43 42 42 42 42 40 39 39 39 40 40 41 41 42 42 42 41
21 19 20 23 24 28 32 32 36 39 41 43 42 42 42 43 44 47 48 51 51 52 52 50 46 45 45 45 45 44 43 43 42 42 41 41 40 39 38 39 40 41 41 42 42 41 41 42 40
28 23 24 22 24 26 27 27 33 37 41 42 43 42 42 43 45 48 48 47 46 43 42 42 43 43 44 45 45 45 45 44 42 41 40 40 39 39 39 40 41 42 42 42 41 40 39 38 39
25 29 26 23 19 19 23 19 29 34 38 41 42 42 42 43 45 46 44 43 42 43 43 43 43 43 44 45 43 42 41 41 42 41 40 38 38 39 41 41 41 41 41 40 40 40 39 38 36
27 29 28 26 25 22 23 24 27 36 37 38 40 42 42 44 45 44 43 42 43 43 43 43 44 45 45 45 44 43 43 43 42 39 37 37 37 39 41 41 41 40 41 40 39 39 38 38 37
29 31 31 31 28 23 27 23 24 31 35 37 39 41 42 43 43 43 43 43 43 44 43 43 44 44 45 44 44 43 43 41 38 37 37 37 37 37 39 40 40 40 40 39 39 38 37 37 36
31 29 25 25 24 24 28 27 27 30 34 38 39 40 42 42 43 43 44 43 44 43 43 43 43 43 43 43 43 43 42 40 38 37 36 35 36 36 36 37 39 40 39 39 38 37 37 36 35
30 27 26 22 23 24 28 27 29 35 35 38 39 40 41 41 42 43 45 44 43 42 42 42 43 42 41 41 41 41 40 38 37 36 37 37 36 36 36 37 39 38 38 38 38 37 37 36 35
29 25 27 28 27 23 26 29 34 36 37 37 38 38 39 40 40 40 42 41 41 40 39 41 41 42 41 39 40 40 39 38 37 37 36 37 37 37 37 37 37 38 37 38 38 37 37 36 35
25 30 26 26 18 19 22 27 29 33 35 36 36 37 38 38 39 39 39 39 40 38 38 39 40 38 39 36 35 34 35 36 37 37 36 37 37 37 36 37 37 37 38 38 38 37 36 35 35
27 27 28 28 26 21 18 23 30 34 36 36 37 39 37 38 37 36 36 36 36 35 35 37 36 34 34 33 34 34 34 36 37 37 37 37 37 36 36 36 36 36 34 36 36 35 33 33 28
27 27 25 19 17 25 23 21 30 34 36 37 36 37 37 37 36 36 36 35 35 34 34 36 36 36 34 33 33 32 32 34 35 36 36 36 35 35 35 35 34 32 32 32 30 29 28 25 24
Lifted_Index
8 8 7 7 6 5 3 1 -0 -2 -2 -2 -2 -2 -2 -3 -3 -3 -3 -4 -4 -4 -4 -5 -5 -6 -6 -6 -7 -7 -6 -6 -5 -5 -4 -4 -4 -4 -4 -4 -4 -3 -3 -2 -2 -2 -1 -1 -1
8 7 7 6 5 4 2 0 -1 -2 -2 -2 -2 -1 -2 -3 -3 -3 -4 -4 -4 -4 -5 -5 -5 -6 -6 -6 -7 -6 -6 -5 -5 -5 -4 -4 -4 -3 -3 -3 -3 -3 -2 -2 -1 -1 -1 -0 -0
7 6 5 5 4 3 1 -1 -2 -2 -2 -1 -1 -0 -1 -2 -3 -3 -4 -4 -5 -5 -5 -5 -5 -6 -6 -6 -6 -6 -5 -5 -5 -5 -4 -4 -3 -3 -3 -3 -3 -2 -1 -1 -0 -0 0 0 0
6 5 4 4 3 2 -0 -2 -3 -2 -1 -1 -0 0 -1 -2 -3 -4 -4 -5 -5 -5 -5 -5 -5 -5 -5 -5 -5 -5 -5 -5 -5 -4 -4 -3 -3 -3 -3 -2 -2 -1 -1 0 0 1 1 1 1
5 4 3 2 2 1 -1 -2 -3 -2 -1 -1 -0 -0 -1 -3 -4 -4 -4 -5 -5 -5 -5 -5 -5 -5 -5 -5 -5 -5 -5 -4 -4 -4 -4 -3 -3 -2 -2 -2 -1 -1 0 1 1 1 1 2 2
4 3 2 1 1 0 -1 -2 -2 -1 -1 -1 -1 -1 -2 -3 -4 -4 -4 -4 -4 -4 -4 -4 -4 -4 -4 -4 -4 -4 -4 -4 -4 -3 -3 -3 -2 -2 -2 -1 -1 -0 1 1 1 2 2 2 2
3 3 1 -0 -1 -1 -2 -2 -1 -1 -1 -1 -2 -2 -3 -4 -4 -4 -4 -3 -3 -2 -2 -2 -2 -2 -3 -3 -3 -3 -3 -3 -3 -2 -2 -2 -2 -2 -1 -1 -0 0 1 1 1 1 2 2 2
3 2 1 0 -1 -1 -2 -2 -1 -1 -1 -1 -2 -3 -4 -4 -3 -3 -2 -1 -0 0 0 0 -0 -0 -0 -1 -1 -2 -2 -2 -2 -1 -1 -1 -1 -1 -1 -0 -0 0 0 1 1 1 1 2 2
2 2 2 1 -0 -1 -1 -1 -1 -1 -1 -1 -1 -3 -4 -4 -2 -1 1 1 2 2 1 1 1 1 1 1 0 -0 -0 -1 -1 -1 -1 -1 -1 -1 -1 -0 -0 -0 -0 0 0 1 1 2 3
2 2 2 1 0 -0 -0 -1 -1 -2 -1 -1 -1 -2 -3 -2 -0 2 3 3 2 2 2 2 2 2 2 1 1 1 0 -0 -0 -1 -1 -1 -1 -1 -1 -1 -1 -0 0 1 1 2 2 3 3
1 1 1 1 0 -0 -0 -1 -2 -2 -1 -1 -1 -2 -2 -0 2 4 4 3 2 2 2 2 2 2 2 1 1 1 0 -0 -1 -1 -1 -1 -2 -1 -1 -1 -0 1 2 2 3 3 3 3 4
1 1 1 1 0 0 -0 -1 -1 -1 -1 -1 -1 -1 -0 1 3 4 4 3 2 1 1 2 2 2 1 1 0 -0 -1 -1 -1 -2 -2 -2 -2 -1 -1 0 1 2 3 3 3 3 4 4 4
1 1 1 1 1 1 0 0 0 0 -0 -1 -1 -0 1 2 3 3 3 2 1 0 0 1 1 1 0 -0 -0 -1 -1 -2 -2 -2 -2 -2 -1 -1 0 1 2 3 3 4 4 4 4 5 5
1 1 1 1 1 1 2 2 2 1 -0 -0 -0 0 1 1 2 2 2 1 0 -0 -1 -0 0 0 -0 -0 -1 -1 -2 -2 -3 -3 -2 -1 -0 0 1 2 2 3 3 4 4 4 5 6 6
1 1 1 1 2 2 2 3 2 1 -0 -0 0 0 0 1 1 1 1 0 -0 -1 -1 -1 -1 -1 -1 -1 -1 -1 -2 -2 -2 -2 -2 -1 0 1 1 1 2 3 3 4 4 5 5 6 6
1 1 1 2 2 3 3 3 2 0 -1 -1 -0 -0 0 0 1 1 0 0 -0 -0 -1 -1 -1 -1 -1 -0 -0 -0 -1 -2 -2 -1 -1 -0 0 1 1 1 2 3 4 4 5 5 6 6 6
1 1 1 2 3 3 3 2 2 0 -1 -1 -1 -0 -0 0 0 0 0 -0 0 -0 -1 -1 -1 -1 -0 0 0 -0 -1 -1 -0 0 0 1 1 1 2 2 3 4 5 6 6 7 7 7 8
1 1 1 2 2 3 2 2 2 1 -1 -1 -1 -1 -1 -0 -0 -0 -1 -0 -0 -0 -1 -1 -1 -0 0 0 0 -0 0 1 1 2 2 2 3 3 4 4 5 6 6 7 7 8 9 9 10
1 1 1 1 2 2 2 2 2 1 0 -1 -1 -1 -1 -1 -1 -1 -2 -2 -1 -1 -1 -0 0 1 1 1 1 1 1 2 3 4 4 4 4 5 5 6 6 7 7 8 8 9 10 11 11
1 1 1 1 1 1 2 2 2 2 1 1 0 0 -0 -1 -2 -2 -2 -2 -1 -1 1 2 2 3 3 3 3 3 3 4 4 5 5 5 5 5 6 6 7 8 8 9 10 10 11 11 11
1 1 1 1 1 1 1 2 2 2 2 2 1 0 -0 -1 -1 -1 -1 -0 0 2 3 4 4 4 4 4 4 4 4 4 4 4 5 5 5 6 6 7 8 10 11 11 11 11 11 11 11
1 1 1 1 1 1 1 2 2 2 2 1 1 0 -0 -0 0 1 1 2 3 3 4 4 4 4 4 4 4 4 4 4 4 4 4 5 6 7 9 10 11 12 12 12 12 12 12 12 12
1 1 1 1 1 1 2 2 2 2 2 1 1 0 1 1 2 2 2 3 3 3 3 3 3 3 3 3 3 3 4 4 4 5 5 6 8 10 11 12 12 12 12 12 12 12 11 11 11
2 1 1 1 1 1 2 2 2 2 1 1 1 1 1 2 2 2 2 2 3 3 3 3 3 2 2 3 3 4 4 5 6 6 8 9 10 11 12 12 12 12 12 12 11 11 11 10 10
2 1 1 1 1 1 1 2 2 2 2 1 1 1 2 2 2 2 2 2 2 3 3 3 2 2 3 3 4 5 6 7 8 9 10 10 11 11 12 12 12 12 12 11 11 10 10 10 10
1 1 1 1 1 1 1 2 2 2 2 2 2 2 2 2 2 2 2 2 2 2 3 3 3 3 4 5 6 7 8 9 10 10 11 11 11 11 11 11 11 11 11 11 10 10 9 9 8
2 2 2 2 1 1 1 2 2 2 2 2 2 2 2 2 1 2 2 2 2 3 3 3 4 5 6 7 8 9 9 10 10 11 11 11 11 11 11 11 11 11 11 10 10 9 8 7 7
2 2 2 2 1 1 1 2 2 3 3 3 3 2 2 2 2 2 2 2 3 3 3 4 5 6 7 8 9 9 10 10 11 11 11 11 11 11 11 11 11 10 10 10 9 8 7 6 5
2 3 3 2 2 1 1 2 3 3 3 3 3 3 2 2 3 3 3 3 3 4 4 5 6 7 8 9 9 10 10 11 11 12 12 12 12 12 11 11 10 10 9 9 8 7 6 5 5
3 3 3 2 2 2 1 2 3 3 3 3 3 3 3 3 3 3 3 4 4 4 5 6 7 8 9 9 10 10 11 11 12 12 13 13 13 12 12 11 10 9 9 8 7 7 6 5 5